FENGYUN 1C DEB

Satellite information

Favourite Embed

Satellite Type and Status

DEBRISIN ORBIT

Key statistics

Satellite FENGYUN 1C DEB at a glance.

Uptime

9616

Days in orbit

Revolutions

≈ 14.5

Per day

Orbit

SSO

Sun Synchronous Orbit

Inclination

98.8

Latest

Satellite identification and parameters

Extended collection of information and parameters for FENGYUN 1C DEB.

Object identification

Identified? True

Debris? True

Object name: FENGYUN 1C DEB

International designator: 1999-025EK

Object number (NORAD): 29841

Object ID (CCSDS): 29841

Country: PEOPLES REPUBLIC OF CHINA (PRC)

Current information (Y/N): Y

RCS size: SMALL

Orbital parameters

Period: 99.585 minutes

Inclination: 98.7999 deg

SMA: 7116.869 km

Apoapsis: 881.635 km

Periapsis: 595.833 km

RAAN: 189.9961 deg

Eccentricy: 0.02007924

Argument of periapsis: 273.1925 deg

Mean anomaly: 139.648 deg

Mean motion: 14.46003411 rev/day

Mean motion (dot): 0.00002796 rev/day2

B* drag term: 0.00062415101 1/REarth

Two-line elements (TLE)

Creation date: Sept. 4, 2025, 4:29 a.m.

Reference frame: TEME

Reference center: EARTH

Epoch: Sept. 3, 2025, 7:28 p.m. UTC

TLE line 0: 0 FENGYUN 1C DEB

TLE line 1: 1 29841U 99025EK 25246.81138969 .00002796 00000-0 62415-3 0 9998

TLE line 2: 2 29841 98.7999 189.9961 0200792 273.1925 139.6480 14.46003411978794

Live tracking on map

Real-time ground track for satellite FENGYUN 1C DEB.

In-orbit conjunctions

A list of the most updated potential collisions computed for object FENGYUN 1C DEB.

Target Orbit TCA Probability of collision Miss distance Type
SL-14 R/B LEO 2025-03-09 04:24:06 0.0001480575 343.0 (m) ROCKET BODY
DIAMANT R/B LEO 2024-11-01 15:08:06 0.0001687414 320.0 (m) ROCKET BODY
OBJECT A SSO 2024-09-17 19:14:26 0.0002773165 385.0 (m) UNKNOWN

Associated space launch

Chinese polar orbiting meteorological satellite

FENGYUN 1C DEB was lifted into orbit during the mission ‘Long March 4B | Feng Yun 1C’, on board a Long March 4B space rocket.

The launch took place on May 10, 1999, 1:33 a.m. from Launch Complex 7.

For more information about the launch, click the button.

Launch to space Long March 4B | Feng Yun 1C
Long March 4B | Feng Yun 1C

Agency: N/A

Status: Launch Successful

Launch date: May 10, 1999, 1:33 a.m. UTC

Rocket: Long March 4B

Launch pad: Launch Complex 7

Location: Taiyuan Satellite Launch Center, People's Republic of China

...

Latest news about this satellite

There are no fresh news available about this satellite. Check back as we update our databases every day.


Newsletter sign-up

Weekly statistics, charts and insights to help you stay on top of the space industry.